Regional Weather Roundup
Issued by NWS

Home | Current Version | Previous Version | Graphics & Text | Print | Product List | Glossary On
Versions: 1 2 3 4 5 6 7 8 9 10 11 12 13 14 15 16 17 18 19 20 21 22 23 24 25 26 27 28 29 30 31 32 33 34 35 36 37 38 39 40 41 42 43 44 45 46 47 48 49 50
000
ASUS43 KMPX 010501
RWRMN
WEATHER ROUNDUP FOR MINNESOTA
NATIONAL WEATHER SERVICE TWIN CITIES/CHANHASSEN MN
1100 PM CST SAT JAN 31 2015


NOTE: "FAIR" INDICATES FEW OR NO CLOUDS BELOW 12,000 FEET WITH NO
SIGNIFICANT WEATHER AND/OR OBSTRUCTIONS TO VISIBILITY. N/A MEANS
CURRENT SKY AND/OR WEATHER CONDITIONS ARE NOT AVAILABLE.

MNZ060>063-068>070-010600-
   Twin Cities Metro

CITY           SKY/WX    TMP DP  RH WIND       PRES   REMARKS
TWIN CITIES    CLOUDY    23  10  57 NE15G21   30.20R WCI  10
ST PAUL        CLOUDY    23  11  60 NE15      30.23R WCI  10
CRYSTAL        CLOUDY    22   9  57 NE14G23   30.21R WCI   9
BLAINE         CLOUDY    21  12  68 NE10G18   30.22S WCI  10
LAKEVILLE      CLOUDY    21  16  79 NE16G22   30.17S WCI   7
EDEN PRAIRIE   CLOUDY    23   9  55 NE12G22   30.18R WCI  12
SOUTH ST PAUL  CLOUDY    24  10  54 E12G18    30.20S WCI  13
LAKE ELMO      CLOUDY    23  12  63 NE15      30.22R WCI  10
$$
MNZ001>005-007-008-013>017-022>024-027-028-010600-
   Northwest Minnesota

CITY           SKY/WX    TMP DP  RH WIND       PRES   REMARKS
BEMIDJI        MOCLDY    -6 -12  75 N7        30.38R WCI -20
HALLOCK        PTCLDY   -11 -20  64 N14       30.55S WCI -33
ROSEAU         MOCLDY    -9 -17  70 N8        30.51S WCI -26
WARROAD        MOCLDY    -9 -18  64 N9        30.50R WCI -27
THIEF RVR FALL PTCLDY    -4 -13  65 NE14      30.45S WCI -24
CROOKSTON      PTCLDY    -6 -13  71 N13       30.51R WCI -25
FOSSTON        MOCLDY    -8 -15  71 N12       30.41R WCI -27
DETROIT LAKES  PTCLDY     5  -2  72 NE10      30.34R WCI -10
MOORHEAD       PTCLDY     0  -6  78 N17       30.41R WCI -21
PARK RAPIDS    MOCLDY     2  -7  66 NE10      30.31R WCI -14
MAHNOMEN       FAIR      -2  -9  71 NE15      30.37R WCI -22
$$
MNZ006-009>011-018-025>026-010600-
   North Central Minnesota

CITY           SKY/WX    TMP DP  RH WIND       PRES   REMARKS
BAUDETTE       CLOUDY   -11 -18  71 N6        30.46R WCI -25
FLAG ISLAND    MOCLDY   -11 -18  70 N9        30.50R WCI -29
INTL FALLS     PTCLDY   -10 -18  67 N6        30.44R WCI -23
WASKISH        MOCLDY    -9 -15  77 CALM      30.43S
BIG FORK       PTCLDY    -6 -15  65 N5        30.40R WCI -17
LONGVILLE      MOCLDY     1  -8  66 NE7       30.34R WCI -11
GRAND RAPIDS   PTCLDY     0 -11  60 NE8       30.34R WCI -15
CRANE LAKE     PTCLDY   -17 -20  83 CALM      30.46R
ORR            PTCLDY   -11 -18  70 CALM      30.37R
COOK           PTCLDY    -8 -15  71 CALM      30.40R
WALKER         FAIR       0  -7  73 N7        30.34R WCI -13
$$
MNZ012-019>021-037-010600-
   Northeast Minnesota

CITY           SKY/WX    TMP DP  RH WIND       PRES   REMARKS
DULUTH         CLOUDY     3  -8  60 N10       30.30R WCI -12
ELY            MOCLDY    -9 -15  77 CALM      30.37S
HIBBING        MOCLDY    -1 -13  56 NE8       30.36R WCI -15
EVELETH        MOCLDY    -2 -11  65 NE7       30.37R WCI -16
DULUTH HARBOR  CLOUDY    10   1  67 N20       30.38R WCI  -8
TWO HARBORS    MOCLDY     5  -8  56 N7        30.33R WCI  -7
SILVER BAY     MOCLDY     1  -9  60 N5        30.34R WCI  -8
GRAND MARAIS     N/A     -1 -14  53 N14G24    30.43R WCI -20
G MARAIS ARPRT MOCLDY    -9 -18  64 N10       30.30R WCI -28
$$
MNZ029>031-032-039>041-046>048-054>057-064-010600-
   West Central Minnesota

CITY           SKY/WX    TMP DP  RH WIND       PRES   REMARKS
FERGUS FALLS   MOCLDY     9  -4  56 NE13      30.34R WCI  -7
WHEATON        CLOUDY     9   0  66 N14       30.31R WCI  -8
MORRIS         CLOUDY    16   3  57 NE17G23   30.24R WCI   0
ALEXANDRIA     CLOUDY    12   1  61 NE14      30.24R WCI  -3
ELBOW LAKE     CLOUDY    10   1  65 NE16G23   30.26S WCI  -7
WADENA         MOCLDY     7  -2  66 NE15      30.29R WCI -11
GLENWOOD       CLOUDY    14   3  62 N21G26    30.22S WCI  -4
APPLETON       CLOUDY    19   7  58 NE20G25   30.22R WCI   4
BENSON         CLOUDY    18   5  57 E9G17     30.22R WCI   6
ORTONVILLE     CLOUDY    16   3  57 N18G25    30.23R WCI  -1
MADISON        CLOUDY    23  10  58 NE16G24   30.21R WCI  10
WILLMAR        FAIR      21   7  53 NE13G23   30.19S WCI   9
$$
MNZ033>034-036-042>043-049>051-058-059-010600-
   Central Minnesota

CITY           SKY/WX    TMP DP  RH WIND       PRES   REMARKS
ST CLOUD       CLOUDY    18   3  52 NE13G20   30.24R WCI   5
SAUK CENTRE    CLOUDY    15   2  54 NE15      30.23S WCI   0
PAYNESVILLE    CLOUDY    17   4  57 N14G20    30.21S WCI   2
AITKIN         CLOUDY     9  -6  52 NE9       30.31R WCI  -5
PINE RIVER     CLOUDY     5  -4  66 NE10      30.35R WCI -10
BRAINERD       CLOUDY     9  -4  55 NE14      30.30R WCI  -7
STAPLES        CLOUDY     9  -4  56 NE9G18    30.29R WCI  -5
LONG PRAIRIE   CLOUDY    14   1  57 N12       30.25R WCI   0
LITTLE FALLS   CLOUDY    14   0  52 NE9       30.28R WCI   2
LITCHFIELD     CLOUDY    21   9  58 NE18G24   30.19S WCI   6
BUFFALO        CLOUDY    21   9  58 NE13G21   30.22R WCI   9
MAPLE LAKE     CLOUDY    22  10  59 NE17      30.22S WCI   7
$$
MNZ037-044-045-052-053-010600-
   East Central Minnesota

CITY           SKY/WX    TMP DP  RH WIND       PRES   REMARKS
PRINCETON      CLOUDY    19   7  58 NE12G20   30.25R WCI   7
MORA           CLOUDY    14   0  52 NE8       30.29R WCI   3
CAMBRIDGE      CLOUDY    19   7  58 NE8G17    30.24S WCI   9
RUSH CITY      CLOUDY    17   6  63 NE12      30.27S WCI   4
MOOSE LAKE     CLOUDY    10  -4  52 NE10      30.31R WCI  -3
HINCKLEY       MOCLDY    16   5  62 NE9       30.29R WCI   4
CLOQUET        CLOUDY     5  -8  56 N8        30.32R WCI  -8
MCGREGOR       CLOUDY     9  -4  56 N9        30.32R WCI  -5
$$
MNZ071>073-080-081-089-090-097-098-010600-
   Southwest Minnesota

CITY           SKY/WX    TMP DP  RH WIND       PRES   REMARKS
MONTEVIDEO     CLOUDY    21  10  63 E17       30.20R WCI   7
GRANITE FALLS  CLOUDY    23  11  59 N16G23    30.18S WCI  10
CANBY          CLOUDY    21  11  65 N16       30.18R WCI   7
MARSHALL       CLOUDY    21   9  58 NE17      30.15R WCI   7
REDWOOD FALLS  CLOUDY    25  11  55 NE13G24   30.14F WCI  14
OLIVIA         CLOUDY    23  12  63 NE16      30.16S WCI  10
PIPESTONE      LGT SNOW  21  19  93 NE13      30.04S WCI   9
WINDOM         LGT SNOW  23  21  93 NE18      30.06F WCI   9
WORTHINGTON    CLOUDY    27  19  74 NE22      30.03F WCI  12
JACKSON        LGT SNOW  27  23  86 NE18      30.03F WCI  13
TRACY          CLOUDY    24  19  80 NE15      30.11S WCI  11
SLAYTON        LGT SNOW  22  21  96 NE8       30.06S WCI  12
$$
MNZ065>067-074>077-082>085-091>093-010600-
   South Central Minnesota

CITY           SKY/WX    TMP DP  RH WIND       PRES   REMARKS
MANKATO        CLOUDY    25  16  68 NE16      30.12S WCI  12
NEW ULM        CLOUDY    25  16  68 NE14G21   30.13S WCI  13
ST JAMES       LGT SNOW  25  21  86 NE10G17   30.11S WCI  15
FAIRMONT       CLOUDY    25  19  80 NE18      30.04F WCI  11
GLENCOE        CLOUDY    25  14  63 NE13G20   30.16F WCI  13
FARIBAULT      CLOUDY    25  18  74 NE10G16   30.14S WCI  15
OWATONNA       CLOUDY    25  18  74 NE15G23   30.10F WCI  12
WASECA         LGT SNOW  25  21  86 NE15      30.11S WCI  12
ALBERT LEA     LGT SNOW  25  25 100 E16G23    30.06F WCI  12
$$
MNZ078>079-086>088-094>096-010600-
   Southeast Minnesota

CITY           SKY/WX    TMP DP  RH WIND       PRES   REMARKS
ROCHESTER      LGT SNOW  24  21  88 NE14      30.10F VSB 1   WCI  12
RED WING       CLOUDY    25  12  58 NE7G18    30.18S WCI  17
STANTON        CLOUDY    26  17  68 NE16      30.15S WCI  13
DODGE CENTER   LGT SNOW  25  21  86 E15       30.09F WCI  12
WINONA         CLOUDY    30  23  74 NE5       30.18R WCI  25
AUSTIN         LGT SNOW  25  21  86 E17       30.07F WCI  11
PRESTON        LGT SNOW  24  22  93 NE9       30.09F WCI  14
$$
ABBREVIATIONS USED IN REMARKS
   TC - TEMPERATURES IN CELSIUS
  WCI - WIND CHILL INDEX
   HX - HEAT INDEX
  VSB - VISIBILITY
$$



USA.gov is the U.S. government's official web portal to all federal, state and local government web resources and services.